Weather History for KONA - August, 2014

Change the Weather History Date:

Tuesday, August 12, 2014

  Actual Average Record
Temperature  
Mean Temperature 68 °F -  
Max Temperature 77 °F 85 °F 93 °F (1993)
Min Temperature 59 °F 62 °F 50 °F (2004)
Cooling Degree Days 3    
Growing Degree Days 18 (Base 50)    
Moisture  
Dew Point 54 °F    
Average Humidity 68    
Maximum Humidity 94    
Minimum Humidity 36    
Precipitation  
Precipitation 0.00 in - - ()
Sea Level Pressure  
Sea Level Pressure 30.01 in    
Wind  
Wind Speed 7 mph (NNW)    
Max Wind Speed 15 mph    
Max Gust Speed 25 mph    
Visibility 10 miles    
Events      
Averages and records for this station are not official NWS values.
T = Trace of Precipitation, MM = Missing Value Source: NWS Daily Summary

Daily Weather History Graph

Daily Weather History Graph

Search for Another Location

Airport or City:

Trip Planner

Search our weather history database for the weather conditions in past years. The results will help you decide how hot, cold, wet, or windy it might be!

Date:

Astronomy

Aug. 12, 2014 Rise Set
Actual Time 6:07 AM CDT 8:15 PM CDT
Civil Twilight 5:35 AM CDT 8:47 PM CDT
Nautical Twilight 4:56 AM CDT 9:26 PM CDT
Astronomical Twilight 4:13 AM CDT 10:09 PM CDT
Moon 9:15 PM CDT (8/12) 8:31 AM CDT (8/12)
Length of Visible Light 15h 11m
Length of Day
14h 08m
Waning Gibbous, 94% of the Moon is Illuminated
Aug 12
Waning Gibbous
Aug 17
Last Quarter
Aug 25
New
Sep 2
First Quarter
Sep 8
Full

Hourly Weather History & Observations

Time (CDT) Temp. Dew Point Humidity Pressure Visibility Wind Dir Wind Speed Gust Speed Precip Events Conditions
12:36 AM 60.8 °F 57.2 °F 88% 30.00 in 10.0 mi NNW 8.1 mph - N/A   Clear
12:56 AM 60.8 °F 57.2 °F 88% 30.00 in 10.0 mi NNW 6.9 mph - N/A   Clear
1:16 AM 60.8 °F 57.2 °F 88% 30.00 in 10.0 mi NNW 8.1 mph - N/A   Clear
1:36 AM 60.8 °F 59.0 °F 94% 30.00 in 10.0 mi NNW 6.9 mph - N/A   Clear
1:56 AM 60.8 °F 57.2 °F 88% 30.00 in 10.0 mi NNW 8.1 mph - N/A   Clear
2:16 AM 60.8 °F 59.0 °F 94% 30.00 in 10.0 mi NNW 8.1 mph - N/A   Mostly Cloudy
2:35 AM 60.8 °F 55.4 °F 82% 30.00 in 10.0 mi NNW 9.2 mph - N/A   Mostly Cloudy
2:56 AM 60.8 °F 55.4 °F 82% 30.00 in 10.0 mi NW 4.6 mph - N/A   Scattered Clouds
3:16 AM 59.0 °F 55.4 °F 88% 30.00 in 10.0 mi NW 5.8 mph - N/A   Scattered Clouds
3:35 AM 59.0 °F 55.4 °F 88% 30.00 in 10.0 mi NW 4.6 mph - N/A   Clear
3:56 AM 59.0 °F 55.4 °F 88% 30.00 in 10.0 mi NW 5.8 mph - N/A   Clear
4:36 AM 59.0 °F 55.4 °F 88% 30.00 in 10.0 mi NW 3.5 mph - N/A   Mostly Cloudy
4:56 AM 59.0 °F 55.4 °F 88% 30.00 in 10.0 mi NW 4.6 mph - N/A   Overcast
5:16 AM 59.0 °F 55.4 °F 88% 30.00 in 10.0 mi NNW 4.6 mph - N/A   Overcast
5:36 AM 59.0 °F 55.4 °F 88% 30.01 in 10.0 mi NNW 5.8 mph - N/A   Overcast
5:56 AM 59.0 °F 55.4 °F 88% 30.01 in 10.0 mi NNW 3.5 mph - N/A   Overcast
6:16 AM 59.0 °F 55.4 °F 88% 30.02 in 10.0 mi NNW 8.1 mph - N/A   Mostly Cloudy
6:36 AM 59.0 °F 55.4 °F 88% 30.02 in 10.0 mi WNW 5.8 mph - N/A   Scattered Clouds
6:56 AM 59.0 °F 55.4 °F 88% 30.02 in 10.0 mi NW 6.9 mph - N/A   Overcast
7:16 AM 59.0 °F 55.4 °F 88% 30.03 in 10.0 mi NNW 9.2 mph - N/A   Overcast
7:36 AM 59.0 °F 55.4 °F 88% 30.03 in 10.0 mi NNW 9.2 mph - N/A   Scattered Clouds
7:56 AM 60.8 °F 55.4 °F 82% 30.04 in 10.0 mi WNW 6.9 mph - N/A   Scattered Clouds
8:16 AM 60.8 °F 55.4 °F 82% 30.04 in 10.0 mi NNW 6.9 mph - N/A   Scattered Clouds
8:36 AM 62.6 °F 55.4 °F 77% 30.04 in 10.0 mi NNW 10.4 mph - N/A   Scattered Clouds
8:56 AM 62.6 °F 55.4 °F 77% 30.04 in 10.0 mi NNW 9.2 mph - N/A   Scattered Clouds
9:16 AM 62.6 °F 55.4 °F 77% 30.04 in 10.0 mi NNW 9.2 mph - N/A   Scattered Clouds
9:36 AM 62.6 °F 55.4 °F 77% 30.04 in 10.0 mi NW 12.7 mph 18.4 mph N/A   Mostly Cloudy
9:56 AM 62.6 °F 55.4 °F 77% 30.04 in 10.0 mi NW 11.5 mph - N/A   Overcast
10:16 AM 62.6 °F 55.4 °F 77% 30.04 in 10.0 mi NNW 11.5 mph 18.4 mph N/A   Overcast
10:36 AM 66.2 °F 57.2 °F 73% 30.04 in 10.0 mi NNW 8.1 mph - N/A   Mostly Cloudy
10:56 AM 69.8 °F 59.0 °F 68% 30.03 in 10.0 mi NNW 10.4 mph 20.7 mph N/A   Scattered Clouds
12:36 PM 73.4 °F 55.4 °F 53% 30.02 in 10.0 mi NNW 10.4 mph - N/A   Mostly Cloudy
12:56 PM 73.4 °F 53.6 °F 50% 30.01 in 10.0 mi NNW 10.4 mph - N/A   Mostly Cloudy
1:16 PM 73.4 °F 55.4 °F 53% 30.01 in 10.0 mi NNW 10.4 mph - N/A   Mostly Cloudy
1:36 PM 73.4 °F 53.6 °F 50% 30.01 in 10.0 mi NNW 10.4 mph - N/A   Mostly Cloudy
1:57 PM 73.4 °F 51.8 °F 47% 30.01 in 10.0 mi North 9.2 mph 18.4 mph N/A   Scattered Clouds
2:16 PM 73.4 °F 50.0 °F 44% 30.00 in 10.0 mi North 6.9 mph 17.3 mph N/A   Scattered Clouds
2:36 PM 75.2 °F 50.0 °F 41% 30.00 in 10.0 mi North 8.1 mph - N/A   Scattered Clouds
2:56 PM 77.0 °F 48.2 °F 36% 30.00 in 10.0 mi North 8.1 mph 19.6 mph N/A   Clear
3:36 PM 77.0 °F 50.0 °F 39% 30.00 in 10.0 mi NNW 11.5 mph 18.4 mph N/A   Clear
3:56 PM 75.2 °F 50.0 °F 41% 29.99 in 10.0 mi North 8.1 mph 19.6 mph N/A   Clear
4:16 PM 77.0 °F 48.2 °F 36% 29.99 in 10.0 mi North 12.7 mph 25.3 mph N/A   Scattered Clouds
4:36 PM 77.0 °F 50.0 °F 39% 29.99 in 10.0 mi NNW 9.2 mph 19.6 mph N/A   Scattered Clouds
4:56 PM 77.0 °F 50.0 °F 39% 29.99 in 10.0 mi NW 15.0 mph - N/A   Clear
5:16 PM 77.0 °F 50.0 °F 39% 29.99 in 10.0 mi NNW 8.1 mph - N/A   Clear
5:36 PM 77.0 °F 50.0 °F 39% 29.99 in 10.0 mi NNW 10.4 mph - N/A   Clear
5:56 PM 77.0 °F 50.0 °F 39% 29.99 in 10.0 mi NNW 9.2 mph 17.3 mph N/A   Clear
6:16 PM 77.0 °F 51.8 °F 41% 29.98 in 10.0 mi NNW 9.2 mph - N/A   Clear
6:56 PM 73.4 °F 51.8 °F 47% 29.99 in 10.0 mi NW 8.1 mph 18.4 mph N/A   Clear
7:16 PM 73.4 °F 51.8 °F 47% 29.99 in 10.0 mi NNW 8.1 mph - N/A   Clear
7:36 PM 73.4 °F 53.6 °F 50% 29.99 in 10.0 mi NW 5.8 mph - N/A   Clear
7:56 PM 71.6 °F 53.6 °F 53% 29.99 in 10.0 mi NW 4.6 mph - N/A   Clear
8:16 PM 69.8 °F 53.6 °F 56% 29.99 in 10.0 mi Calm Calm - N/A   Clear
8:37 PM 69.8 °F 53.6 °F 56% 30.00 in 10.0 mi Calm Calm - N/A   Clear
8:56 PM 69.8 °F 55.4 °F 60% 30.00 in 10.0 mi Calm Calm - N/A   Clear
9:16 PM 66.2 °F 55.4 °F 68% 30.00 in 10.0 mi Calm Calm - N/A   Clear
9:56 PM 62.6 °F 55.4 °F 77% 30.01 in 10.0 mi Calm Calm - N/A   Clear
10:16 PM 62.6 °F 53.6 °F 72% 30.01 in 10.0 mi Calm Calm - N/A   Clear
10:35 PM 60.8 °F 55.4 °F 82% 30.01 in 10.0 mi Calm Calm - N/A   Clear
10:56 PM 60.8 °F 53.6 °F 77% 30.02 in 10.0 mi Calm Calm - N/A   Clear
11:16 PM 60.8 °F 53.6 °F 77% 30.02 in 10.0 mi Calm Calm - N/A   Clear
11:56 PM 59.0 °F 53.6 °F 82% 30.02 in 10.0 mi Calm Calm - N/A   Clear